Regional Weather Roundup
Issued by NWS Wakefield, VA

Home | Current Version | Previous Version | Graphics & Text | Print | Product List | Glossary On
Versions: 1 2 3 4 5 6 7 8 9 10 11 12 13 14 15 16 17 18 19 20 21 22 23 24 25 26 27 28 29 30 31 32 33 34 35 36 37 38 39 40 41 42 43 44 45 46 47 48 49 50
000
ASUS41 KAKQ 041215
RWRAKQ

REGIONAL WEATHER ROUNDUP
NATIONAL WEATHER SERVICE WAKEFIELD VA
800 AM EDT SAT JUL 04 2015

Note: "fair" indicates few or no clouds below 12,000 feet with no
significant weather and/or obstructions to visibility. * = Denotes
station may not report precipitation (e.g., rain,snow,etc.),
thunder or fog.

VAZ042-051-052>054-056-041300-
NORTHERN VIRGINIA

CITY           SKY/WX    TMP DP  RH WIND       PRES   REMARKS
WASH NATIONAL  CLOUDY    74  68  81 NE3       29.90R
DULLES         CLOUDY    70  67  90 SE3       29.90R FOG
FORT BELVOIR   CLOUDY    71  69  91 CALM      29.89R
QUANTICO       CLOUDY    72  67  84 NW3       29.90R
FREDERICKSBRG* PTSUNNY   73  72  98 CALM      29.89R
STAFFORD*      CLOUDY    69  67  92 CALM      29.94R FOG
WARRENTON      RAIN      70  70 100 CALM      29.91R
CULPEPER*      CLOUDY    67  66  97 CALM      29.92R FOG
MANASSAS*      RAIN      70  70 100 CALM        N/A  FOG
LEESBURG*      LGT RAIN  70  70 100 CALM      29.92R
WINCHESTER     CLOUDY    70  68  94 S3        29.91R FOG
FRONT ROYAL*   CLOUDY    66  64  94 CALM      29.90R
LURAY*         CLOUDY    68  68 100 CALM      29.92S FOG
$$

VAZ048-049-060>072-079>083-041300-
CENTRAL AND SOUTH CENTRAL VIRGINIA

CITY           SKY/WX    TMP DP  RH WIND       PRES   REMARKS
RICHMOND       CLOUDY    73  69  87 W5        29.90R
CHESTERFIELD*  NOT AVBL
PETERSBURG*    CLOUDY    72  72 100 SW5       29.93R FOG
HANOVER        CLOUDY    70  68  93 MISG      29.92R FOG
TAPPAHANNOCK*  MOSUNNY   73  69  86 CALM      29.90R
QUINTON*       CLOUDY    70  69  99 W3        29.90R
CHARLOTTSVILLE CLOUDY    69  67  93 CALM      29.92R FOG
GORDONSVILLE*  CLOUDY    70  68  94 CALM      29.91R FOG
ORANGE*        CLOUDY    70  68  94 CALM      29.93R FOG
LOUISA*        CLOUDY    72  68  88 CALM      29.91R
BUMPASS*       CLOUDY    70  68  93 MISG      29.91R
FARMVILLE*     CLOUDY    71  71 100 CALM      29.92R FOG
CREWE*         CLOUDY    70  69  96 CALM      29.92S
FORT PICKETT*  CLOUDY    70  69  97 SW3       29.93R
CHASE CITY*    CLOUDY    72  72 100 CALM      29.94S
CLARKSVILLE*   CLOUDY    70  70 100 CALM      29.93S
SOUTH HILL*    CLOUDY    70  70  98 CALM      29.99S
LAWRENCEVILLE* NOT AVBL
EMPORIA*         N/A     70  70 100 CALM      29.94S FOG
$$

VAZ088>098-041300-
SOUTHEAST VIRGINIA

CITY           SKY/WX    TMP DP  RH WIND       PRES   REMARKS
NORFOLK        CLOUDY    73  69  87 W12G22    29.89R
VIRGINIA BEACH PTSUNNY   76  70  82 SW22G29   29.88R
NORFOLK NAVAL  CLOUDY    73  69  87 W15G22    29.91R
WEST POINT*    CLOUDY    75  72  90 CALM      29.90R
SALUDA*        CLOUDY    74  72  92 NW7       29.87R
NEWPORT NEWS   CLOUDY    73  72  96 W10       29.89R FOG
LANGLEY AFB    CLOUDY    73  71  94 W15       29.87R FOG
FORT EUSTIS    CLOUDY    73 N/A N/A W8        29.88R
WILLIAMSBURG*  CLOUDY    75  75 100 W7        29.91R
HR EXEC AP*    PTSUNNY   73  70  88 W13       29.93R
FRANKLIN*      CLOUDY    71  69  93 W6        29.93R
WAKEFIELD      CLOUDY    73  70  90 W6        29.92R
$$

VAZ020-022-025-037-045-041300-
WEST CENTRAL AND SOUTHWEST VIRGINIA

CITY           SKY/WX    TMP DP  RH WIND       PRES   REMARKS
STAUNTON*      CLOUDY    70  68  94 S3        29.95S FOG
WAYNESBORO*    CLOUDY    66  66  99 CALM      29.95R
HOT SPRINGS VA DRZL/FOG  63  63 100 W12G17    30.02R VSB<1/4
LYNCHBURG      FOG       68  68 100 S6        29.95R VSB 1
DANVILLE       CLOUDY    72  70  93 VRB3      29.94S
SOUTH BOSTON*  CLOUDY    71  69  95 MISG      29.94S
MARTINSVILLE   CLOUDY    71  71 100 CALM      29.98R
ROANOKE        PTSUNNY   69  68  96 S5        29.97R FOG
BLACKSBURG     CLOUDY    67  67 100 W3        30.02R
DUBLIN*        MOSUNNY   69  69 100 SW7       30.01S
MARION*        CLOUDY    66  64  94 W12G20    30.05R FOG
HILLSVILLE*    CLOUDY    65  64  96 SW8       30.02R
RICHLANDS*     CLOUDY    64  64 100 SW8       30.04R
WISE*          CLOUDY    64  64 100 SW8       30.05R
ABINGDON*      CLOUDY    68  68 100 W8        30.03R
$$

MDZ021>025-VAZ099-100-041300-
SOUTHERN MARYLAND AND THE DELMARVA PENINSULA

CITY           SKY/WX    TMP DP  RH WIND       PRES   REMARKS
PATUXENT RIVER PTSUNNY   74  69  85 N5        29.88R
BAY BRIDGE APT   N/A     73  66  78 E6        29.89R
LEONARDTOWN    MOSUNNY   72  66  83 CALM      29.90R
DOVER          MOSUNNY   75  68  80 NE9       29.87R
GEORGETOWN     CLOUDY    73  69  87 E7        29.87R
EASTON         SUNNY     75  73  94 E3        29.92R
CAMBRIDGE      SUNNY     73  68  83 NE5       29.87R
SALISBURY      SUNNY     74  70  87 NE10      29.85R
OCEAN CITY     HVY RAIN  73  71  93 E12G20    29.84S VSB 1
WALLOPS ISLAND CLOUDY    74  74 100 N8        29.83R
ACCOMACK*      CLOUDY    73  73 100 NW6       29.85R FOG
$$

NCZ012>017-030>032-041300-
NORTH CENTRAL AND EASTERN NORTH CAROLINA

CITY           SKY/WX    TMP DP  RH WIND       PRES   REMARKS
ROANOKE RAPIDS CLOUDY    72  70  94 SW9       29.94S
RALEIGH        PTSUNNY   73  70  90 SW7       29.96R
ELIZABETH CITY CLOUDY    75  71  87 SW13      29.93R
AHOSKIE*       CLOUDY   N/A N/A N/A CALM      29.94R
EDENTON*       MOSUNNY   76  70  83 W10G16    29.94R
CURRITUCK*     CLOUDY    75  71  87 SW12G17   29.92R
KILL DEVIL HLS PTSUNNY   77  72  84 W13G21    29.92R
MANTEO         CLOUDY    76  72  87 W17       29.94R
CAPE HATTERAS  CLOUDY    77  70  79 W14G21    29.97R
TARBORO*         N/A     76  70  82 SW7       29.96S
GOLDSBORO      SUNNY     76  71  85 SW7       29.95S
WASHINGTON     SUNNY     75  70  86 SW9       29.96F
GREENVILLE     SUNNY     77  72  83 W10       29.98S
NEW BERN       SUNNY     78  71  79 W10       29.99R
WILMINGTON     PTSUNNY   79  68  69 W17G23    30.00R
$$

VAZ048-041300-
ELSEWHERE

CITY           SKY/WX    TMP DP  RH WIND       PRES   REMARKS
HARRISBURG PA  LGT RAIN  66  63  90 CALM      29.92R FOG
BALTIMORE      CLOUDY    72  67  84 CALM      29.89S
ANNAPOLIS      MOSUNNY   74  67  78 NE5       29.89R
ANDREWS AFB    CLOUDY    71  71  99 NE5       29.89R
PHILADELPHIA   PTSUNNY   72  66  81 NE8       29.92R
HENDERSON NC   CLOUDY    71  68  91 SW8       29.95R
GREENSBORO     PTSUNNY   71  68  90 SW12      29.96R
ROCKY MOUNT    MOSUNNY   76  70  82 S6        29.95S
$$

VAZ100-041300-
MARINE

STATION/POSITION TIME  TEMP    WIND        PRES    WAVE   SWELL
                       AIR SEA DIR/SP/G            HT/PER HT/PER
                 (UTC) (F)     (DEG/KT/KT) (MB)    (FT/S) (FT/S)
BRANDYWINE LGT   1100   73 74  100/ 15/ 17 1011.6F
CAPE MAY NJ      1100   72 75   80/ 10/ 14 1011.1F
LEWES DE         1100   73 72  100/ 11/ 12 1010.9F
15NM E FENWICK I 1150   73 73              1010.2R   4/ 4
OCEAN-CITY-INLET 1100   73 73   80/  9/ 17 1010.0F
WACHAPREAGUE VA  1100   74 79  350/  5/  7 1009.3F
GOOSES REEF MD   1200   74 77   40/  4/  6 1012.9R
COVE POINT MD    1100   71      80/  6/  8 1011.9R
SOLOMONS ISLAND  1100      79                N/A
BISHOPS HEAD MD  1100   74      40/  8/ 10 1010.4R
PINEY POINT MD   1100           40/  6/  7   N/A
CAMBRIDGE MD     1100   71 78   20/  4/  7 1011.0S
LEWISETTA VA     1100   75 79   40/  4/  5 1010.6R
RAPPAHANNOCK LGT 1100          350/ 11/ 12 1010.6R
STINGRAY PT      1200   77 80  340/  8/ 10 1011.5R   1/ 3
YORK RVR RNG VA  1100   75     260/ 14/ 16 1010.2R
YORKTOWN VA      1100   73 79  240/  9/ 13 1010.8R
JAMESTOWN VA     1200   73 82  250/ 10/ 14   N/A
DOMINION TERM VA 1100   73     260/ 14/ 17 1011.3R
KIPTOPEKE VA     1100      80  270/ 19/ 22   N/A
CHES BAY BRIDGE  1100   74 76  230/ 19/ 23 1010.5R
CAPE HENRY VA    1100   73     240/ 13/ 18 1009.5R
CHESAPEAKE LGHT  1100   75     240/ 22/ 24 1011.0R
WILLOUBY STN VA  1100   73     250/ 19/ 21 1011.7R
CAPE HENRY BUOY  1128      77                N/A     3/ 8
1ST LANDING BUOY 1200      75              1011.9R   2/ 3
CAPE CHARLES BUO 1126      74                N/A     3/ 8   2/ 8
OFFSHORE WE BUOY 1111      78                N/A     5/ 4   3/ 8
64NM E OF VA BCH 1150   77 76  250/ 21/ 23 1011.4R   6/ 7   2/ 9
DUCK PIER NC     1100   77 71  260/ 21/ 27 1011.7R
44100 DUCK FRF   1124      74                N/A     4/ 8
44056 DUCK FRF   1111      76                N/A     3/ 9
OREGON INLET NC  1100   76 78  240/ 17/ 22 1013.0R
HATTERAS NC      1100   79 77  240/ 12/ 18 1014.0R
DIAMOND SHLS NC  1150   80 81  250/ 25/ 29 1014.3R   7/ 7   2/15
CAPE LOOKOUT NC  1200   80     240/ 19/ 23 1015.4R
$$



USA.gov is the U.S. government's official web portal to all federal, state and local government web resources and services.